Weather History for Albany, GA

Change the Weather History Date:

Saturday, April 5, 2014

  Actual Average Record
Temperature  
Mean Temperature 69 °F 64 °F  
Max Temperature 77 °F 76 °F 90 °F (2010)
Min Temperature 60 °F 51 °F 30 °F (1987)
Degree Days  
Heating Degree Days 0 3  
Month to date heating degree days 2 19  
Since 1 July heating degree days 1866 1788  
Cooling Degree Days 4 2  
Month to date cooling degree days 15 10  
Year to date cooling degree days 22 48  
Growing Degree Days 18 (Base 50)    
Moisture  
Dew Point 61 °F    
Average Humidity 75    
Maximum Humidity 93    
Minimum Humidity 57    
Precipitation  
Precipitation 0.13 in - 1.21 in (2008)
Sea Level Pressure  
Sea Level Pressure 30.03 in    
Wind  
Wind Speed 3 mph (West)    
Max Wind Speed 9 mph    
Max Gust Speed 29 mph    
Visibility 8 miles    
Events Rain , Thunderstorm    
T = Trace of Precipitation, MM = Missing Value Source: NWS Daily Summary

Daily Weather History Graph

Daily Weather History Graph

Search for Another Location

Airport:

Trip Planner

Search our weather history database for the weather conditions in past years. The results will help you decide how hot, cold, wet, or windy it might be!

Date:

Astronomy

Apr. 05, 2014 Rise Set
Actual Time 7:20 AM EDT 7:58 PM EDT
Civil Twilight 6:55 AM EDT 8:23 PM EDT
Nautical Twilight 6:26 AM EDT 8:52 PM EDT
Astronomical Twilight 5:57 AM EDT 9:22 PM EDT
Moon 11:40 AM EDT (4/5) 12:55 AM EDT (4/5)
Length of Visible Light 13h 27m
Length of Day
12h 38m
Waxing Crescent, 34% of the Moon is Illuminated
Apr 5
Waxing Crescent
Apr 7
First Quarter
Apr 15
Full
Apr 22
Last Quarter
Apr 29
New

Hourly Weather History & Observations

Time (EDT) Temp. Dew Point Humidity Pressure Visibility Wind Dir Wind Speed Gust Speed Precip Events Conditions
12:53 AM 64.9 °F 57.9 °F 78% 30.01 in 10.0 mi West 4.6 mph - N/A   Mostly Cloudy
1:53 AM 63.0 °F 57.0 °F 81% 30.02 in 10.0 mi Calm Calm - N/A   Partly Cloudy
2:53 AM 60.1 °F 57.0 °F 90% 30.01 in 10.0 mi South 3.5 mph - N/A   Mostly Cloudy
3:53 AM 63.0 °F 59.0 °F 87% 30.02 in 10.0 mi Calm Calm - N/A   Overcast
4:53 AM 64.0 °F 59.0 °F 84% 30.00 in 10.0 mi Calm Calm - N/A   Overcast
5:53 AM 64.0 °F 60.1 °F 87% 30.00 in 10.0 mi Calm Calm - N/A   Overcast
6:53 AM 63.0 °F 60.1 °F 90% 30.01 in 10.0 mi SW 3.5 mph - N/A   Overcast
7:53 AM 64.0 °F 60.1 °F 87% 30.02 in 10.0 mi Calm Calm - N/A   Overcast
8:53 AM 64.9 °F 61.0 °F 87% 30.04 in 10.0 mi NNW 3.5 mph - N/A   Overcast
9:53 AM 66.9 °F 60.1 °F 79% 30.05 in 10.0 mi NW 4.6 mph - N/A   Overcast
10:53 AM 69.1 °F 60.1 °F 73% 30.06 in 10.0 mi Variable 4.6 mph - N/A   Overcast
11:53 AM 73.0 °F 60.1 °F 64% 30.07 in 10.0 mi Calm Calm - N/A   Mostly Cloudy
12:53 PM 73.0 °F 57.9 °F 59% 30.05 in 10.0 mi Variable 5.8 mph - N/A   Mostly Cloudy
1:53 PM 75.9 °F 60.1 °F 58% 30.03 in 10.0 mi Variable 5.8 mph - N/A   Overcast
2:53 PM 75.9 °F 60.1 °F 58% 30.02 in 10.0 mi SW 8.1 mph - N/A   Overcast
3:53 PM 75.9 °F 60.1 °F 58% 29.99 in 10.0 mi Variable 5.8 mph - N/A   Overcast
4:53 PM 75.9 °F 60.1 °F 58% 29.99 in 10.0 mi SW 5.8 mph - N/A   Overcast
5:53 PM 75.0 °F 61.0 °F 62% 29.99 in 10.0 mi WSW 5.8 mph - N/A   Overcast
6:53 PM 73.9 °F 61.0 °F 64% 29.99 in 10.0 mi West 4.6 mph - N/A   Overcast
7:53 PM 73.0 °F 62.1 °F 68% 29.99 in 10.0 mi Calm Calm - N/A   Mostly Cloudy
8:53 PM 71.1 °F 63.0 °F 75% 30.00 in 9.0 mi NNW 3.5 mph - 0.00 in Rain Light Rain
9:53 PM 69.1 °F 64.0 °F 84% 30.03 in 2.5 mi Calm Calm - 0.05 in Rain Heavy Rain
10:05 PM 69.8 °F 64.4 °F 83% 30.04 in 10.0 mi Calm Calm - 0.00 in   Overcast
10:53 PM 66.9 °F 64.0 °F 90% 30.05 in 7.0 mi West 4.6 mph - 0.00 in Rain Light Rain
11:04 PM 66.2 °F 64.4 °F 94% 30.06 in 3.0 mi WSW 6.9 mph - 0.04 in Rain , Thunderstorm Heavy Thunderstorms and Rain
11:08 PM 66.2 °F 64.4 °F 94% 30.06 in 1.8 mi West 5.8 mph - 0.06 in Rain , Thunderstorm Heavy Thunderstorms and Rain
11:13 PM 66.2 °F 64.4 °F 94% 30.06 in 2.0 mi WSW 3.5 mph - 0.07 in Rain Rain
11:19 PM 66.2 °F 64.4 °F 94% 30.06 in 3.0 mi Calm Calm - 0.08 in Rain Rain
11:53 PM 66.0 °F 64.0 °F 93% 30.04 in 8.0 mi Calm Calm - 0.08 in   Mostly Cloudy